Weather History for 06240 - June, 2013

Change the Weather History Date:

Saturday, June 15, 2013

  Actual Average Record
Temperature  
Mean Temperature 58 °F -  
Max Temperature 64 °F 67 °F - ()
Min Temperature 52 °F 52 °F - ()
Degree Days  
Heating Degree Days 7    
Growing Degree Days 8 (Base 50)    
Moisture  
Dew Point 47 °F    
Average Humidity 66    
Maximum Humidity 88    
Minimum Humidity 36    
Precipitation  
Precipitation 0.08 in - - ()
Sea Level Pressure  
Sea Level Pressure 29.84 in    
Wind  
Wind Speed 15 mph ()    
Max Wind Speed 36 mph    
Max Gust Speed 47 mph    
Visibility 7.9 miles    
Events Rain    
T = Trace of Precipitation, MM = Missing Value Source: Averaged Metar Reports

Daily Weather History Graph

Daily Weather History Graph

Search for Another Location

Airport or City:

Trip Planner

Search our weather history database for the weather conditions in past years. The results will help you decide how hot, cold, wet, or windy it might be!

Date:

Astronomy

Jun. 15, 2013 Rise Set
Actual Time 5:18 AM CEST 10:04 PM CEST
Civil Twilight 4:29 AM CEST 10:54 PM CEST
Nautical Twilight 3:08 AM CEST 12:14 AM CEST
Astronomical Twilight Sun does not set Sun does not set
Moon 12:23 PM CEST (6/15) 12:49 AM CEST (6/15)
Length of Visible Light 18h 24m
Length of Day
16h 46m
Waxing Crescent, 37% of the Moon is Illuminated
Jun 15
Waxing Crescent
Jun 16
First Quarter
Jun 23
Full
Jun 30
Last Quarter
Jul 8
New

Hourly Weather History & Observations

Time (CEST) Temp. Dew Point Humidity Pressure Visibility Wind Dir Wind Speed Gust Speed Precip Events Conditions
12:25 AM 55.4 °F 48.2 °F 77% 29.95 in - SSE 8.1 mph - N/A   Clear
12:55 AM 55.4 °F 46.4 °F 72% 29.95 in - SSE 6.9 mph - N/A   Clear
1:25 AM 55.4 °F 48.2 °F 77% 29.95 in - SSE 8.1 mph - N/A   Clear
1:55 AM 53.6 °F 46.4 °F 77% 29.92 in - SE 9.2 mph - N/A   Clear
2:00 AM 54 °F 47 °F 70% 29.94 in 17 mi SE 8.9 mph - -   Partly Cloudy
2:25 AM 53.6 °F 46.4 °F 77% 29.92 in - SE 9.2 mph - N/A   Clear
2:55 AM 53.6 °F 46.4 °F 77% 29.89 in - SE 9.2 mph - N/A   Clear
3:25 AM 53.6 °F 46.4 °F 77% 29.89 in - SE 9.2 mph - N/A   Clear
3:55 AM 53.6 °F 46.4 °F 77% 29.89 in - SE 9.2 mph - N/A   Clear
4:25 AM 53.6 °F 46.4 °F 77% 29.86 in - SE 10.4 mph - N/A   Clear
4:55 AM 51.8 °F 46.4 °F 82% 29.86 in - SE 9.2 mph - N/A   Clear
5:00 AM 52 °F 47 °F 76% 29.86 in 14 mi SE 8.9 mph - -   Partly Cloudy
5:25 AM 51.8 °F 46.4 °F 82% 29.83 in - SE 9.2 mph - N/A   Clear
5:55 AM 53.6 °F 48.2 °F 82% 29.83 in - SE 11.5 mph - N/A   Clear
6:25 AM 53.6 °F 48.2 °F 82% 29.80 in - SE 11.5 mph - N/A   Clear
6:55 AM 55.4 °F 48.2 °F 77% 29.80 in - SSE 11.5 mph - N/A   Clear
7:25 AM 57.2 °F 48.2 °F 72% 29.77 in - SSE 13.8 mph - N/A   Clear
7:55 AM 57.2 °F 50.0 °F 77% 29.77 in - SSE 13.8 mph - N/A   Clear
8:00 AM 58 °F 49 °F 65% 29.78 in 22 mi SSE 13.4 mph - -   Partly Cloudy
8:25 AM 59.0 °F 50.0 °F 72% 29.77 in 6.2 mi South 15.0 mph - N/A   Partly Cloudy
8:55 AM 59.0 °F 50.0 °F 72% 29.74 in 6.2 mi South 15.0 mph - N/A   Partly Cloudy
9:25 AM 60.8 °F 51.8 °F 72% 29.74 in 6.2 mi South 18.4 mph - N/A Rain Light Rain
9:55 AM 60.8 °F 51.8 °F 72% 29.74 in 6.2 mi SSW 17.3 mph - N/A Rain Light Rain
10:25 AM 57.2 °F 53.6 °F 88% 29.77 in 5.0 mi SW 21.9 mph - N/A Rain Light Rain
10:55 AM 57.2 °F 51.8 °F 82% 29.77 in 6.2 mi SW 16.1 mph - N/A   Partly Cloudy
11:00 AM 57 °F 53 °F 81% 29.78 in 19 mi SW 15.7 mph - - Rain Rain
11:25 AM 59.0 °F 51.8 °F 77% 29.77 in 6.2 mi SW 26.5 mph - N/A   Scattered Clouds
11:55 AM 59.0 °F 50.0 °F 72% 29.80 in 6.2 mi WSW 24.2 mph - N/A   Scattered Clouds
12:25 PM 60.8 °F 48.2 °F 63% 29.80 in 6.2 mi WSW 24.2 mph - N/A   Partly Cloudy
12:55 PM 60.8 °F 46.4 °F 59% 29.80 in 6.2 mi WSW 25.3 mph - N/A   Partly Cloudy
1:25 PM 60.8 °F 46.4 °F 59% 29.83 in 6.2 mi WSW 25.3 mph - N/A   Scattered Clouds
1:55 PM 60.8 °F 46.4 °F 59% 29.83 in 6.2 mi WSW 24.2 mph - N/A   Scattered Clouds
2:00 PM 61 °F 45 °F 45% 29.84 in 14 mi WSW 22.4 mph - -   Partly Cloudy
2:25 PM 62.6 °F 46.4 °F 55% 29.83 in 6.2 mi SW 27.6 mph - N/A   Scattered Clouds
2:55 PM 62.6 °F 46.4 °F 55% 29.83 in 6.2 mi WSW 26.5 mph - N/A   Scattered Clouds
3:25 PM 62.6 °F 46.4 °F 55% 29.83 in 6.2 mi WSW 25.3 mph - N/A   Partly Cloudy
3:55 PM 60.8 °F 46.4 °F 59% 29.83 in 6.2 mi SW 28.8 mph - N/A   Partly Cloudy
4:25 PM 62.6 °F 46.4 °F 55% 29.86 in 6.2 mi SW 31.1 mph - N/A   Partly Cloudy
4:55 PM 62.6 °F 44.6 °F 52% 29.86 in 6.2 mi WSW 31.1 mph 43.7 mph N/A   Partly Cloudy
5:00 PM 63 °F 43 °F 37% 29.86 in 12 mi WSW 31.3 mph - -   Partly Cloudy
5:25 PM 62.6 °F 42.8 °F 48% 29.86 in 6.2 mi SW 31.1 mph - N/A   Partly Cloudy
5:55 PM 62.6 °F 44.6 °F 52% 29.86 in 6.2 mi WSW 26.5 mph - N/A   Partly Cloudy
6:25 PM 62.6 °F 42.8 °F 48% 29.86 in 6.2 mi SW 31.1 mph - N/A   Partly Cloudy
6:55 PM 60.8 °F 42.8 °F 52% 29.86 in 6.2 mi WSW 29.9 mph - N/A   Partly Cloudy
7:25 PM 60.8 °F 42.8 °F 52% 29.86 in 6.2 mi WSW 29.9 mph - N/A   Partly Cloudy
7:55 PM 60.8 °F 41.0 °F 48% 29.86 in 6.2 mi SW 27.6 mph - N/A   Partly Cloudy
8:00 PM 61 °F 41 °F 36% 29.86 in 17 mi SW 29.1 mph - -   Partly Cloudy
8:25 PM 60.8 °F 41.0 °F 48% 29.83 in 6.2 mi SW 28.8 mph 41.4 mph N/A   Partly Cloudy
8:55 PM 59.0 °F 42.8 °F 55% 29.86 in 6.2 mi SW 33.4 mph 44.9 mph N/A Rain Light Rain Showers
9:25 PM 57.2 °F 46.4 °F 67% 29.86 in 5.6 mi SW 35.7 mph 47.2 mph N/A Rain Light Rain Showers
9:55 PM 57.2 °F 46.4 °F 67% 29.86 in 6.2 mi SW 27.6 mph - N/A   Partly Cloudy
10:25 PM 57.2 °F 46.4 °F 67% 29.86 in 6.2 mi SW 24.2 mph - N/A   Partly Cloudy
10:55 PM 57.2 °F 44.6 °F 63% 29.86 in - WSW 21.9 mph - N/A   Clear
11:00 PM 57 °F 45 °F 54% 29.88 in 12 mi WSW 22.4 mph - -   Partly Cloudy
11:25 PM 57.2 °F 44.6 °F 63% 29.86 in - WSW 21.9 mph - N/A   Clear
11:55 PM 57.2 °F 44.6 °F 63% 29.86 in - WSW 19.6 mph - N/A   Clear